GFSSE_850_spd_000.txt.gz
Wind_Speed
3 7 8 7 7 9 8 8 8 7 7 5 5 4 3 3 3 4 8 8 8 7 4 3 6 7 11 12 14 13 12 12 12 11 8 4 4 6 6 5 3 3 5
5 8 8 7 6 9 9 9 7 4 4 5 3 3 3 3 5 10 10 11 9 7 3 4 11 13 14 16 17 15 14 12 10 10 10 8 7 6 7 8 7 6 6
6 8 10 8 6 8 8 7 5 2 3 4 2 2 2 3 5 9 11 11 10 12 15 20 21 16 13 13 16 16 16 16 14 10 7 8 8 8 8 9 10 8 8
8 9 10 9 9 9 8 6 4 3 3 3 1 2 3 6 10 13 13 14 18 20 21 22 20 12 8 9 15 15 14 14 11 10 8 7 8 7 8 10 11 10 10
10 10 10 11 10 9 8 7 5 3 2 0 2 3 4 8 12 13 14 16 17 17 13 9 5 6 5 12 12 14 15 15 12 15 11 10 8 6 7 9 12 11 12
13 13 13 11 10 9 8 7 6 3 1 1 2 2 4 6 7 7 8 10 10 9 5 4 5 8 9 9 15 21 19 19 18 17 15 14 12 10 10 9 12 11 12
15 14 14 11 10 9 7 5 2 2 3 3 2 3 5 6 6 6 7 8 9 9 9 9 9 8 10 12 14 14 11 16 14 17 18 18 15 14 13 13 15 12 10
10 12 11 10 7 4 2 1 2 2 3 3 4 4 4 4 5 4 6 7 7 8 9 10 10 10 12 12 13 18 19 19 18 19 18 19 17 18 16 15 13 14 12
6 3 4 5 3 4 6 5 4 4 4 5 6 6 5 6 7 8 7 7 6 7 8 10 11 11 11 11 11 11 13 13 15 17 19 17 16 17 17 17 16 17 15
5 4 3 3 5 8 10 10 7 5 3 4 5 6 7 7 8 8 9 9 9 9 10 10 11 10 10 11 11 11 11 11 10 13 17 17 18 18 18 18 21 17 18
6 3 1 2 6 9 11 11 7 5 3 4 6 7 8 7 7 8 9 9 11 12 12 12 12 12 11 9 10 10 11 12 12 12 14 16 15 17 18 19 20 21 19
6 3 2 2 3 7 6 7 7 6 5 4 6 8 9 10 9 9 10 12 14 15 16 15 15 12 12 11 11 12 13 14 15 14 15 16 16 16 16 16 18 18 20
5 7 6 5 5 7 6 5 6 7 6 7 8 9 10 11 11 12 13 16 17 17 17 17 17 16 13 12 10 11 13 16 18 20 19 18 18 18 18 18 18 17 18
9 10 9 5 6 8 9 9 9 10 9 9 10 11 11 12 13 16 17 18 18 19 19 19 18 17 17 16 17 17 18 16 15 16 17 19 19 18 16 17 19 19 18
14 12 9 4 7 8 9 11 11 11 11 12 13 14 15 15 17 18 19 19 20 20 20 20 18 17 18 17 17 17 16 16 15 15 16 16 17 21 22 19 21 20 20
13 12 11 4 5 7 10 10 10 11 13 14 16 16 16 17 19 19 19 19 20 21 21 21 19 17 16 17 17 17 16 16 16 15 15 15 17 18 19 22 24 23 23
10 14 10 4 3 7 9 9 10 12 13 14 14 14 16 18 18 18 19 20 19 21 21 21 21 21 19 17 16 17 16 16 16 16 17 17 16 15 17 20 21 23 26
12 14 10 4 4 7 8 11 12 13 15 15 16 17 17 17 17 18 20 19 17 18 19 21 21 21 20 19 18 18 17 15 15 16 17 17 16 15 14 12 15 18 21
16 14 9 2 4 4 7 10 11 13 14 15 17 19 20 21 20 21 21 20 19 19 19 21 22 21 21 22 22 21 18 15 13 15 16 16 16 13 13 11 11 11 15
16 12 9 1 2 4 6 9 9 11 12 14 16 18 21 23 25 26 26 25 24 24 24 24 24 24 24 24 24 24 21 19 14 16 19 17 21 19 17 16 14 13 14
9 9 3 3 2 5 10 12 14 15 16 20 22 22 24 27 30 32 33 32 30 31 29 27 27 28 29 28 28 30 28 24 20 21 25 23 22 24 23 19 17 16 15
5 3 4 5 9 11 14 16 18 22 23 24 25 27 30 31 32 36 39 39 39 38 37 35 34 34 33 33 31 31 29 25 30 30 31 30 28 28 26 24 24 23 21
0 2 3 5 10 14 18 19 21 23 24 27 27 26 27 33 34 36 35 39 43 44 44 42 42 40 39 37 35 29 13 19 25 25 26 32 32 32 32 27 26 25 23
5 6 7 10 13 17 17 16 20 23 27 29 32 36 38 33 31 31 32 32 35 44 49 48 46 44 42 40 38 34 33 32 23 21 26 27 30 32 33 30 27 25 21
9 8 8 8 10 12 14 18 22 27 31 34 37 37 35 35 35 35 35 36 36 36 43 50 47 42 39 37 35 28 26 22 17 14 18 24 32 37 37 32 29 27 23
1 1 4 7 11 16 22 27 31 31 34 36 38 39 40 41 40 38 36 34 36 36 37 35 36 29 25 23 20 17 13 7 8 10 16 25 30 40 37 34 31 28 24

GFSSE_850_spd_003.txt.gz
Wind_Speed
4 10 10 10 10 9 7 5 4 4 5 4 3 3 3 3 6 8 8 7 7 5 2 2 3 6 8 10 11 11 12 10 9 9 6 4 3 3 3 3 2 3 4
5 12 11 9 9 9 7 5 4 3 3 3 3 3 3 6 9 9 10 9 8 6 4 8 15 16 14 11 10 10 10 10 9 8 7 6 4 4 5 6 5 5 3
8 12 11 9 7 7 6 5 4 3 4 3 3 4 5 7 10 10 10 10 11 10 15 20 21 20 16 10 12 11 10 10 10 9 7 6 5 5 6 8 7 6 5
13 14 13 13 12 9 8 5 4 4 4 3 1 1 3 6 9 9 10 11 14 17 20 21 18 13 7 7 10 11 11 12 10 9 9 8 6 5 4 8 10 8 8
15 16 15 15 14 11 9 7 6 5 3 2 2 3 4 8 9 11 13 14 15 15 13 11 11 6 6 7 9 9 11 11 11 11 10 11 9 7 4 3 9 11 11
15 16 16 14 12 9 7 5 3 3 3 4 4 4 5 7 8 9 9 10 11 10 8 7 7 8 10 10 10 14 19 21 18 16 14 12 12 9 6 6 6 12 13
16 17 15 13 10 7 5 4 2 2 2 2 3 5 7 8 7 7 7 8 8 8 7 7 7 8 9 11 12 13 12 12 19 16 14 15 14 13 12 11 10 12 12
14 14 14 11 9 8 5 3 3 3 4 4 4 6 6 6 7 7 9 10 12 12 13 12 10 10 11 11 10 9 11 14 14 17 19 19 19 17 16 16 13 10 14
13 11 9 8 7 6 4 2 1 2 4 4 5 6 6 8 8 9 9 10 11 11 11 11 12 13 13 12 10 8 8 9 13 16 18 17 16 18 18 15 14 13 16
10 8 6 4 4 5 6 6 5 2 0 2 2 4 5 7 8 8 9 10 11 13 14 14 14 14 14 13 11 9 9 7 8 10 12 16 18 18 17 24 18 19 18
10 8 5 1 3 5 6 7 7 6 3 2 3 5 6 6 7 8 9 10 12 14 16 17 17 16 14 12 11 11 10 9 9 10 12 14 14 14 15 20 19 21 19
9 7 3 1 3 5 6 6 5 6 5 4 5 6 8 9 9 9 10 12 14 16 16 17 18 17 15 12 10 9 10 11 12 14 14 15 15 14 16 15 17 19 18
9 7 3 2 3 3 3 5 4 5 5 6 7 8 9 11 11 12 14 18 19 20 20 20 19 19 17 14 12 11 11 12 14 16 16 16 18 18 17 17 17 17 16
8 7 6 4 2 3 5 7 7 7 8 8 9 10 11 12 13 15 17 20 20 21 21 20 20 20 19 18 16 14 13 13 14 14 14 14 16 15 17 17 16 16 15
11 11 9 6 1 4 6 7 6 7 8 10 11 12 13 13 14 17 19 19 20 20 20 20 20 19 17 16 15 14 14 12 12 12 12 12 12 14 15 17 20 18 17
10 11 11 6 1 5 6 6 7 8 9 10 12 12 13 14 16 18 18 18 18 19 19 20 19 18 18 17 17 16 16 15 14 13 12 12 12 12 11 13 16 20 21
8 11 10 6 1 3 5 6 8 10 11 12 13 13 13 14 16 18 19 19 19 19 19 19 18 18 18 18 17 17 17 17 16 13 13 12 11 11 12 11 12 15 18
13 13 11 6 1 3 5 7 9 11 13 13 15 16 17 18 18 19 19 20 19 20 21 21 21 22 21 19 18 18 18 18 16 14 11 13 13 12 11 12 13 13 13
10 14 11 6 2 4 2 7 8 11 13 13 13 14 15 17 19 22 24 26 25 25 25 24 23 23 23 23 23 22 21 20 19 15 12 13 17 15 14 14 13 14 15
12 14 11 7 5 2 5 9 10 13 14 17 18 20 20 22 24 26 29 31 31 32 32 30 30 30 28 26 27 27 26 24 23 21 19 15 20 19 16 15 15 15 16
15 14 11 7 5 3 8 10 13 17 18 20 21 23 25 25 25 26 29 33 36 39 41 41 38 36 35 33 32 31 32 31 29 27 24 20 21 27 23 18 17 17 19
8 9 8 9 10 11 13 16 18 19 19 20 21 24 25 27 29 34 35 35 35 37 38 40 45 45 44 41 39 27 21 24 25 28 25 23 22 26 25 23 20 20 19
8 9 8 8 10 12 14 14 14 15 19 23 28 32 33 34 34 33 33 34 35 34 34 34 39 45 50 46 45 36 19 24 21 22 26 24 25 26 27 23 23 22 19
6 6 6 7 7 7 11 15 20 24 27 28 30 32 33 34 36 37 37 36 36 36 38 37 37 39 42 47 40 48 45 37 23 25 26 27 28 25 26 26 23 24 19
3 3 2 4 7 13 19 24 27 28 28 31 35 39 39 40 38 37 36 34 34 34 35 36 37 38 38 41 39 35 35 35 34 23 25 23 24 22 23 26 23 24 21
8 4 1 8 16 23 27 29 28 28 31 34 37 40 41 41 40 37 33 30 27 27 26 26 24 20 15 17 23 26 24 23 16 11 12 14 16 19 22 26 23 20 23

GFSSE_850_spd_006.txt.gz
Wind_Speed
8 8 14 10 8 7 5 4 5 3 3 4 3 4 3 4 6 5 6 6 4 4 2 1 3 6 8 7 10 9 9 9 9 7 6 5 4 3 2 0 3 6 6
9 7 10 8 6 5 5 5 4 3 2 4 4 4 5 5 7 6 6 6 5 6 7 8 12 16 14 14 11 11 10 10 9 7 6 5 6 5 5 5 5 6 6
11 11 10 10 8 6 5 5 4 2 2 3 4 4 6 6 7 7 8 8 9 11 14 17 20 21 18 14 13 14 12 11 8 7 8 4 5 8 7 7 7 7 7
13 11 10 11 9 8 7 6 5 4 4 4 4 5 5 6 8 9 8 9 12 15 17 18 19 18 13 12 11 12 13 12 11 9 5 7 6 7 6 7 9 9 8
14 14 13 13 11 9 8 7 6 4 4 3 3 4 5 6 8 10 11 12 14 16 16 15 15 14 11 10 10 11 12 13 12 9 8 7 5 7 7 6 9 10 11
12 13 17 15 11 9 6 5 2 2 3 4 5 5 6 6 7 7 9 10 11 12 13 12 12 11 10 10 11 12 14 17 16 9 11 9 9 11 8 7 10 11 12
14 16 15 13 10 7 5 3 1 2 3 4 4 6 7 8 7 7 7 7 8 8 8 8 9 10 12 13 11 10 13 13 9 12 14 13 10 13 12 10 12 11 12
15 17 13 11 9 6 4 1 1 2 3 4 5 7 8 7 7 7 7 7 9 9 10 12 12 12 13 12 11 9 8 9 6 9 12 9 15 16 17 17 16 12 12
13 12 10 9 7 5 3 2 2 2 4 5 5 5 6 7 8 8 8 9 10 10 11 12 13 14 14 14 14 12 9 8 4 7 8 10 15 16 15 17 18 19 13
10 8 8 7 6 4 4 3 2 0 2 2 2 4 6 8 8 8 9 9 10 13 15 16 16 16 16 15 14 12 10 7 4 5 6 11 14 17 17 17 19 19 21
9 9 7 5 4 2 2 3 3 3 2 2 3 5 7 7 9 10 10 11 13 14 17 18 18 18 17 16 14 12 10 6 5 6 7 11 12 14 15 15 15 15 24
10 8 5 4 1 1 2 3 3 4 3 3 4 7 7 8 10 11 12 13 15 17 18 18 19 19 15 9 10 11 7 9 7 7 9 14 14 15 15 15 15 15 18
10 9 6 3 0 0 1 2 2 3 5 5 7 8 9 10 10 10 10 11 14 18 13 16 16 12 16 16 12 13 13 12 9 9 12 13 12 14 17 17 16 15 14
11 10 7 4 1 1 1 2 3 4 5 6 8 11 10 10 11 11 12 13 15 14 17 14 13 19 19 17 15 13 12 10 7 7 11 12 12 12 13 16 17 15 15
12 11 9 7 3 3 1 1 3 4 5 6 8 9 10 9 11 12 13 14 14 14 14 14 14 15 16 15 13 13 11 11 11 7 7 13 13 12 12 13 16 18 17
11 11 10 9 6 3 2 2 4 6 6 7 7 9 11 11 11 12 13 13 13 13 13 13 14 15 13 14 13 14 13 10 9 10 7 10 12 11 12 14 14 16 18
9 10 11 11 6 3 3 3 4 3 6 5 7 11 11 12 12 14 13 13 14 14 17 15 15 16 16 14 15 15 15 13 10 12 10 7 8 9 10 11 14 15 16
11 11 12 12 7 5 4 2 2 4 8 6 9 12 12 13 14 16 15 16 17 20 18 18 18 17 17 15 15 15 14 14 13 14 11 9 7 6 10 11 12 13 14
12 13 14 12 7 7 5 1 3 5 5 6 10 11 13 15 17 19 21 22 21 21 23 21 21 21 21 20 19 18 18 17 16 14 14 13 12 10 7 11 11 12 15
10 11 12 10 7 10 8 5 6 6 7 11 14 16 18 19 20 22 24 26 26 22 24 24 25 25 25 26 26 24 22 21 19 19 17 16 15 12 9 8 8 8 12
8 11 7 8 12 12 8 6 7 8 9 8 10 18 21 24 28 30 31 29 28 24 26 31 28 28 29 28 27 29 29 26 25 24 23 22 20 17 15 11 10 8 8
7 8 10 11 12 12 9 12 11 10 8 12 14 22 26 31 31 28 27 27 26 25 25 26 27 28 29 28 31 30 33 33 31 26 25 25 24 21 18 14 12 16 16
7 7 7 8 8 6 4 6 7 9 11 12 19 23 28 30 30 29 29 30 31 29 25 25 26 27 32 31 29 32 26 34 31 30 25 23 23 22 19 18 13 13 13
4 4 3 1 3 6 11 14 20 14 16 23 21 19 28 30 32 33 34 34 34 32 27 24 24 26 27 34 31 32 39 40 37 33 25 23 24 23 20 18 16 12 11
6 6 6 7 10 15 18 23 19 17 15 15 18 22 23 23 29 32 35 35 33 31 26 30 27 21 22 26 29 30 31 33 34 33 36 22 23 22 21 17 15 14 14
7 6 9 10 13 18 21 27 25 21 21 22 23 25 24 27 26 25 31 29 28 25 18 16 15 13 11 8 9 10 12 13 15 22 29 35 31 22 20 15 15 15 16

GFSSE_850_spd_009.txt.gz
Wind_Speed
10 6 8 5 6 7 8 6 4 4 4 2 2 3 2 2 2 4 4 3 5 6 6 4 4 6 9 11 11 14 13 11 9 9 9 9 8 6 5 3 2 3 5
11 6 8 6 5 5 6 5 4 4 3 3 3 2 3 3 5 5 5 6 6 7 8 10 11 13 16 18 16 14 14 15 12 11 9 8 8 9 5 3 3 3 2
12 8 7 8 9 7 6 5 4 3 3 2 2 4 5 7 7 8 9 9 10 11 13 14 16 18 16 16 16 15 17 15 13 11 9 6 13 9 6 5 6 5 4
13 11 8 10 9 8 6 4 3 2 1 1 1 3 5 7 8 8 10 11 13 15 15 15 15 15 14 12 12 11 13 15 14 13 10 8 10 12 8 7 6 6 6
14 9 11 12 10 8 5 3 2 1 2 3 4 4 6 8 9 10 10 11 12 13 14 13 13 13 13 12 14 13 11 13 15 15 11 14 10 13 7 7 4 6 6
13 10 13 12 10 7 5 4 3 2 4 5 6 6 8 9 10 10 9 9 9 10 10 11 11 12 12 11 11 12 14 13 14 12 14 23 12 13 10 9 8 9 7
14 11 12 11 9 6 3 2 2 2 3 4 4 6 7 8 8 8 8 8 9 9 10 11 11 11 11 11 12 11 10 12 12 10 20 23 14 14 14 11 11 9 9
13 11 11 10 8 6 4 2 2 3 3 3 5 6 7 7 7 8 7 7 9 9 12 13 14 14 13 13 12 11 10 9 7 10 14 16 14 6 14 14 15 14 13
12 10 8 7 7 5 5 4 3 3 4 5 6 6 7 8 8 8 8 9 11 13 15 17 17 16 16 15 14 13 11 9 1 8 10 12 15 13 15 15 15 15 15
11 9 7 7 4 4 5 5 4 3 3 4 5 7 9 10 10 10 9 11 12 13 15 17 17 17 17 16 13 12 11 6 6 8 10 14 15 16 13 13 16 18 19
11 9 7 4 4 4 4 6 8 6 7 8 10 10 11 7 8 10 15 12 14 15 17 19 19 19 18 14 17 14 10 5 6 6 11 15 16 14 13 15 15 16 17
12 8 6 5 3 3 3 3 2 3 3 2 3 6 7 8 9 13 13 18 18 18 20 18 19 18 14 10 14 15 9 10 8 9 13 19 17 15 16 15 15 16 16
12 10 8 5 2 3 1 2 2 3 4 4 7 7 7 9 8 10 10 12 13 16 12 15 13 12 13 13 11 11 11 10 9 10 15 18 14 13 13 15 16 17 17
12 11 7 4 1 1 3 1 1 2 2 4 5 8 8 8 9 10 10 12 13 13 14 13 13 14 14 13 12 12 10 10 8 10 16 17 13 12 12 14 14 13 16
11 10 8 6 4 1 0 0 1 2 2 3 4 6 7 7 8 10 11 12 13 13 14 14 14 14 14 13 13 12 11 11 11 10 12 17 15 13 13 13 14 15 15
12 11 10 8 6 3 3 3 2 1 3 3 4 5 7 6 8 10 11 12 13 13 14 15 15 16 15 14 14 14 14 13 13 13 11 17 17 15 14 15 16 17 18
11 11 10 9 8 6 5 3 2 2 3 3 4 5 7 9 10 12 12 13 15 16 18 18 18 19 19 18 18 18 17 16 15 14 14 12 16 16 14 14 15 17 18
11 9 10 10 10 7 7 5 3 3 3 4 5 7 8 8 11 14 14 15 17 19 20 20 21 21 21 22 22 21 19 20 18 18 17 15 15 15 16 16 13 14 17
9 10 11 12 10 7 7 5 5 5 4 6 6 6 10 11 12 16 18 21 22 21 23 23 24 24 24 25 26 27 26 24 23 22 21 20 20 21 16 18 16 14 15
8 9 11 10 9 8 7 6 6 6 6 8 8 7 9 9 14 19 20 21 22 20 22 24 26 27 29 30 31 31 32 31 29 27 25 25 24 23 20 21 19 17 14
4 6 9 11 13 6 6 7 7 9 9 8 8 9 10 13 23 24 18 17 19 20 23 27 29 29 30 30 31 33 34 36 36 35 32 29 27 26 25 21 21 16 16
7 8 7 5 2 2 4 3 5 6 6 9 8 13 13 18 21 20 20 20 20 22 25 26 26 29 30 28 30 33 35 36 36 37 40 38 35 33 30 26 24 19 18
9 8 7 6 5 5 4 3 5 7 10 13 15 17 17 22 21 20 20 20 21 21 23 24 25 26 31 31 29 31 33 34 32 34 33 38 36 34 36 32 28 26 21
10 9 8 6 4 6 2 5 10 10 12 14 16 19 23 21 20 21 21 21 21 21 22 23 22 25 26 31 29 30 34 37 38 38 41 35 33 34 31 33 30 27 22
7 6 5 3 4 6 6 10 13 14 19 25 23 20 21 19 20 21 22 23 27 22 20 19 19 18 19 21 23 23 24 26 27 25 28 29 32 31 30 32 30 24 21
4 4 4 6 8 8 9 13 16 25 33 18 19 20 19 21 22 22 23 21 20 18 17 17 17 16 17 17 16 15 13 13 17 14 18 23 26 27 27 23 25 24 19

GFSSE_850_spd_012.txt.gz
Wind_Speed
7 7 9 11 12 12 11 10 8 5 6 4 2 4 5 5 6 7 7 7 7 8 9 9 10 10 13 16 16 17 17 15 11 11 10 9 7 6 5 5 5 7 8
9 6 12 11 10 11 10 8 6 5 5 4 4 4 6 7 7 8 9 9 10 10 10 12 14 15 17 20 21 19 15 17 16 15 11 7 7 6 3 1 1 4 2
6 13 12 11 11 10 9 7 6 6 4 4 4 6 7 8 9 9 9 10 11 12 12 13 13 14 14 15 16 17 16 15 17 16 12 8 4 12 6 3 2 2 2
18 8 12 11 10 9 8 6 5 5 4 4 6 7 8 8 8 9 9 11 11 12 12 12 12 13 13 13 14 14 14 15 16 16 11 8 11 14 4 7 4 3 3
13 7 13 13 12 10 8 7 5 4 4 5 6 6 7 8 8 9 9 9 11 12 12 13 13 13 13 13 14 14 14 14 14 15 13 8 14 16 9 5 4 4 4
9 16 15 14 12 10 8 5 3 3 3 4 5 6 7 7 8 8 8 9 9 10 11 12 13 13 13 13 13 13 14 13 13 13 13 15 17 19 12 10 8 5 6
14 16 15 13 11 8 6 4 3 3 4 4 6 7 7 8 9 8 9 9 10 11 12 13 14 14 14 13 14 13 12 12 13 10 8 15 20 11 6 7 7 6 6
13 15 14 12 9 6 4 3 3 3 4 5 6 7 8 9 9 9 8 8 9 10 12 13 14 14 14 14 15 15 14 12 10 4 9 11 14 5 5 10 9 8 10
13 14 13 10 9 8 6 5 5 4 4 5 6 8 9 9 10 9 8 8 11 12 14 16 17 17 16 16 15 14 13 12 7 7 9 13 12 11 14 16 13 12 13
13 12 8 10 10 6 8 7 7 7 8 9 9 12 12 13 18 16 14 17 16 16 17 19 19 19 18 15 14 15 14 7 6 8 12 12 16 18 19 17 12 11 12
12 10 8 8 7 3 6 9 8 10 11 10 11 13 11 12 11 16 16 19 18 19 20 16 21 19 14 11 14 15 13 7 8 7 14 13 17 17 17 15 13 12 13
11 9 10 5 5 8 4 6 10 10 11 8 6 7 5 9 6 13 13 17 16 20 18 17 17 17 13 13 12 11 9 12 16 9 18 18 19 18 15 14 13 14 15
12 10 8 8 6 7 2 5 6 5 3 5 1 9 4 8 4 5 8 12 15 16 14 20 16 15 17 22 18 13 14 15 9 10 17 19 21 20 15 12 11 12 16
16 16 10 5 3 7 6 4 6 3 2 2 4 3 4 2 4 5 5 10 10 11 14 14 15 16 16 19 21 18 16 14 10 12 17 18 21 20 15 14 13 13 13
17 17 15 11 4 1 8 3 5 6 3 4 1 6 7 5 7 7 9 9 10 12 13 15 18 15 17 18 15 17 21 16 15 16 16 18 21 22 18 16 15 15 15
15 18 18 13 6 5 5 6 3 2 3 2 3 7 6 7 10 11 13 14 12 13 16 21 18 21 22 23 20 16 20 23 21 18 18 20 22 21 22 19 19 18 18
14 18 19 16 12 9 6 5 5 5 2 1 4 8 10 8 10 13 16 16 14 16 21 24 20 21 22 23 24 24 22 24 25 21 19 23 22 23 23 21 20 20 19
10 15 10 19 10 6 4 6 3 5 2 2 4 6 8 10 13 15 15 18 19 24 28 27 26 22 24 25 26 27 27 28 27 27 27 26 25 25 25 24 20 20 21
12 3 8 10 7 6 10 6 7 7 3 7 8 7 11 8 13 15 18 22 25 28 28 26 24 23 24 26 30 30 29 28 28 29 29 29 30 24 26 24 25 22 21
5 4 4 9 5 7 6 8 6 8 6 4 5 10 14 8 14 18 22 21 21 25 25 22 25 28 29 29 29 30 33 33 34 32 31 32 32 31 30 33 27 27 26
4 1 8 10 12 6 4 8 9 7 5 7 5 9 12 14 20 27 24 22 25 21 23 24 27 28 28 28 28 31 31 32 32 33 34 36 37 36 36 37 39 33 28
9 6 10 9 8 7 5 3 5 6 6 6 6 9 11 17 24 34 24 22 21 25 27 25 24 28 31 28 27 30 34 36 32 30 30 35 41 42 45 42 40 38 28
9 8 6 3 3 5 8 2 1 4 6 11 19 29 21 28 40 21 20 22 24 28 30 30 25 24 26 26 23 23 31 31 31 31 34 36 35 29 36 33 34 40 37
9 9 7 7 6 4 2 7 14 9 10 14 14 20 27 19 15 19 22 23 24 27 30 23 22 24 25 25 22 16 20 23 21 28 27 26 29 27 24 36 41 37 40
7 6 5 3 3 5 8 13 12 11 16 19 15 16 17 14 20 26 24 26 29 29 24 23 21 20 19 19 20 22 28 31 31 25 27 25 30 29 29 25 31 30 23
5 3 4 5 8 11 10 9 18 15 15 15 16 16 17 21 27 24 25 26 24 18 18 20 22 21 22 25 24 24 17 21 19 16 23 35 31 36 31 29 29 24 23

GFSSE_850_spd_015.txt.gz
Wind_Speed
17 18 14 14 15 13 12 10 9 9 9 10 11 11 10 10 11 10 10 9 9 9 10 10 11 12 12 12 12 13 13 13 10 8 6 5 4 1 1 1 5 8 6
17 17 15 14 14 13 11 10 9 9 10 10 10 9 9 10 11 11 11 11 10 11 11 11 11 12 12 13 13 13 11 9 11 11 8 5 6 3 2 1 2 1 2
14 18 15 14 13 11 10 9 9 9 10 9 9 9 10 10 10 10 9 9 10 10 10 11 10 10 11 12 13 13 13 12 9 7 6 5 4 7 2 1 3 1 0
19 18 16 14 13 11 10 9 9 9 8 8 8 8 9 9 10 9 10 11 11 11 11 11 11 11 11 12 12 12 12 10 10 7 3 4 5 4 6 6 2 3 3
15 15 16 14 13 11 10 9 8 7 7 7 7 9 10 10 11 11 11 11 11 11 11 12 14 14 14 14 13 13 11 10 8 7 4 5 9 6 4 8 4 2 5
14 17 17 15 13 11 9 7 6 6 6 7 8 9 10 10 10 10 9 9 10 10 12 13 14 14 14 14 14 14 12 9 7 4 3 8 10 13 13 10 10 4 5
21 19 18 14 12 9 7 6 5 5 7 8 9 9 9 8 9 8 8 9 9 10 11 12 14 15 15 15 14 14 13 11 8 3 1 7 11 17 10 8 8 6 9
20 19 16 13 10 7 5 5 6 6 7 8 9 8 7 9 10 11 9 11 11 12 13 15 16 16 16 16 15 14 12 11 8 3 5 9 10 8 7 5 4 5 12
19 17 14 12 10 10 9 9 9 9 9 9 9 9 10 11 12 14 13 14 14 15 16 17 17 17 15 13 12 13 13 9 8 4 5 7 9 9 8 10 11 12 16
13 13 11 10 10 11 11 10 11 11 12 12 12 11 10 12 13 15 13 16 16 19 18 16 20 17 14 11 13 12 10 5 5 5 8 10 12 11 13 14 14 14 15
11 12 8 7 8 8 12 15 13 12 11 10 10 10 7 10 10 13 13 14 16 16 16 19 18 17 16 16 20 16 9 4 5 11 10 10 13 13 16 18 15 14 14
15 16 12 5 7 7 8 8 10 10 11 10 9 8 6 7 6 9 8 10 14 12 15 17 20 19 20 22 20 18 13 12 11 12 9 11 15 17 17 17 14 15 15
15 18 12 5 14 7 2 5 7 9 7 4 5 4 5 2 0 5 7 9 10 12 13 15 17 20 19 20 24 23 17 13 10 10 12 8 13 18 19 19 16 15 15
18 20 13 7 9 14 11 10 11 9 6 4 5 4 3 0 1 2 5 8 8 9 11 13 17 21 18 19 21 22 22 21 17 11 14 18 17 19 21 20 19 17 17
22 22 15 8 7 10 10 11 11 8 5 6 3 3 3 4 4 7 10 11 11 11 13 17 21 25 21 22 23 23 23 21 21 18 19 18 17 19 21 20 18 19 19
25 22 17 11 5 7 13 8 8 6 3 2 4 5 6 6 6 9 11 12 13 15 16 20 23 24 22 23 24 24 24 25 26 24 23 21 21 22 23 21 20 20 22
19 30 26 13 6 8 9 6 7 3 0 3 7 8 11 8 8 8 10 12 14 17 21 24 27 24 23 23 23 25 24 26 28 31 31 28 26 25 23 24 23 22 20
21 29 27 11 18 17 9 5 9 6 2 3 5 4 7 8 12 13 12 13 18 21 24 27 25 23 23 22 23 24 25 27 27 26 29 32 31 31 30 26 25 25 22
12 12 18 8 15 15 11 9 6 5 6 6 9 7 8 8 12 15 14 22 30 28 27 27 28 26 27 28 31 31 29 27 27 28 28 30 31 34 34 32 28 27 27
11 7 11 11 6 10 15 10 8 6 4 6 4 6 10 12 15 16 22 35 36 33 31 28 27 28 29 29 29 31 31 30 28 26 26 25 28 30 36 39 36 34 34
19 20 22 22 19 14 14 10 10 9 6 3 5 8 10 15 19 26 28 28 25 28 28 28 28 26 28 29 33 34 34 32 29 28 27 25 25 26 31 40 43 40 39
10 6 6 6 11 8 8 8 8 6 4 5 8 10 17 19 24 23 25 19 21 23 27 31 30 32 27 26 26 29 28 37 34 30 26 21 23 27 26 23 25 31 39
9 4 2 1 1 4 3 4 5 5 9 12 15 20 20 21 26 22 18 21 24 27 28 29 32 26 29 29 27 25 19 13 29 31 32 26 25 28 29 23 19 21 30
8 6 8 10 11 10 9 11 15 14 13 15 18 18 20 23 22 18 22 26 31 29 30 27 20 21 23 25 26 20 20 24 20 25 27 33 31 29 28 30 24 20 21
7 8 7 7 13 18 17 18 14 10 11 7 12 17 19 20 22 23 28 28 24 22 19 21 22 24 25 25 24 24 25 24 27 29 36 34 37 29 30 30 31 30 25
6 9 9 3 3 11 11 9 12 13 13 14 20 23 22 25 28 26 22 21 18 20 22 24 26 31 30 27 22 23 25 24 22 23 27 37 34 32 26 25 25 24 23

GFSSE_850_spd_018.txt.gz
Wind_Speed
22 18 15 14 14 13 11 11 11 11 12 12 12 12 11 11 11 10 10 9 8 9 8 9 9 9 9 9 8 8 7 8 7 3 3 5 2 2 2 2 1 3 2
21 19 16 15 14 13 12 11 11 11 12 11 10 9 9 10 10 10 10 11 11 10 10 9 9 9 10 10 9 8 6 5 6 3 1 1 2 3 2 3 5 2 4
21 19 16 14 13 12 12 11 10 10 10 10 9 9 10 10 11 11 11 11 10 10 10 10 9 10 11 11 11 9 8 5 4 2 2 3 5 5 3 4 8 6 4
18 19 16 14 13 12 11 10 9 9 9 8 8 9 9 10 10 11 11 12 12 12 12 13 13 13 12 12 12 10 8 6 3 1 4 6 5 3 5 5 4 7 9
22 20 17 14 12 11 9 9 8 8 8 8 8 8 8 8 9 10 10 10 11 11 12 13 14 14 13 13 13 12 10 6 2 1 2 5 4 4 8 10 7 10 9
21 19 16 14 13 11 9 8 7 7 7 8 7 7 8 8 8 9 10 11 12 12 13 13 14 14 13 12 12 10 9 6 3 1 2 1 2 4 5 16 13 13 12
23 20 18 14 12 9 8 8 8 8 7 7 7 7 8 8 9 9 10 11 11 12 12 12 12 12 11 10 10 9 7 5 2 1 1 4 4 6 5 3 6 13 13
22 20 17 13 11 9 7 6 5 7 7 8 8 7 7 9 10 11 11 12 12 13 12 13 14 13 10 8 8 8 5 3 2 1 2 2 3 4 2 6 6 12 12
20 18 15 13 12 9 8 8 8 9 10 10 8 8 10 11 10 12 13 13 14 13 15 16 15 14 13 11 13 10 4 1 2 2 4 2 3 7 6 7 8 10 11
18 14 13 13 13 12 10 11 11 11 10 10 9 10 10 12 12 12 13 13 14 13 15 16 18 17 16 15 16 15 6 5 5 3 6 8 5 7 8 10 13 12 12
14 12 11 11 13 15 16 14 13 12 9 10 8 7 9 9 8 10 11 11 12 12 14 14 18 20 19 18 18 18 15 9 10 11 9 10 11 12 14 15 14 15 15
18 12 9 9 13 13 9 8 10 10 9 8 8 7 6 5 5 7 9 10 11 12 12 14 17 20 21 19 20 19 17 14 14 13 13 11 10 12 14 16 19 18 17
19 16 13 12 11 11 7 6 7 6 5 5 5 4 2 3 4 6 7 9 10 11 13 15 17 19 23 19 18 20 19 17 14 13 14 14 15 16 16 18 19 20 19
22 15 13 10 11 13 12 10 8 4 2 1 2 3 2 2 2 2 4 7 9 10 13 16 18 20 23 20 18 20 19 19 18 17 16 14 16 20 23 23 23 21 20
24 19 16 13 15 12 9 8 9 6 4 3 3 3 3 2 1 1 2 3 5 7 11 14 17 21 23 21 20 21 19 19 20 21 19 20 20 19 17 19 22 21 20
27 23 20 17 15 14 12 11 10 10 8 5 3 4 5 5 6 5 5 6 8 11 15 18 21 23 25 24 25 21 20 20 19 19 21 24 26 26 24 21 20 19 21
33 24 26 22 14 11 11 7 10 10 4 5 6 8 10 11 12 11 10 11 11 14 18 22 27 29 29 28 27 25 22 22 23 23 23 21 20 26 29 28 26 23 21
36 33 31 24 16 10 11 8 8 8 6 9 11 13 13 15 13 12 13 16 18 21 25 34 39 35 32 30 30 29 29 28 27 25 24 25 24 24 23 29 32 30 27
35 35 28 20 16 12 14 9 11 10 9 10 8 12 12 10 11 13 16 19 27 35 35 37 32 28 28 29 30 30 30 30 29 27 24 24 25 25 24 24 27 33 33
25 26 23 11 12 10 12 15 14 12 10 6 6 4 3 6 10 15 19 27 34 30 33 30 29 30 29 30 33 33 32 31 30 27 21 20 21 24 23 24 27 26 34
22 19 18 9 16 14 14 14 12 8 5 4 3 3 6 12 16 20 26 30 29 26 23 25 31 32 34 36 37 38 39 35 17 19 28 21 22 21 20 22 21 20 22
17 11 9 12 13 16 13 8 5 4 4 3 6 10 14 18 23 26 28 23 21 23 25 29 33 35 34 29 30 33 24 36 24 18 28 20 22 24 25 23 18 18 22
16 13 10 7 5 2 2 2 1 5 12 13 16 20 24 23 22 25 20 21 25 28 30 29 26 24 25 25 25 24 21 18 27 28 30 27 29 33 32 32 32 27 19
12 10 8 8 7 5 5 10 14 19 21 23 24 23 19 22 23 22 27 29 27 23 24 23 22 22 22 23 25 20 20 20 18 27 24 34 37 37 30 26 24 25 26
9 9 10 12 14 12 12 15 18 18 18 20 20 21 21 20 20 27 25 19 23 22 22 22 22 22 23 24 19 24 26 28 28 27 32 26 34 31 30 21 20 17 16
7 6 5 4 5 9 13 15 15 16 16 15 16 17 18 21 28 25 21 23 23 28 23 20 19 19 20 16 19 24 28 27 26 27 28 38 33 33 27 19 12 14 11

GFSSE_850_spd_021.txt.gz
Wind_Speed
23 21 17 15 14 12 11 10 10 11 10 10 10 11 10 11 10 9 9 8 8 8 8 7 8 8 7 6 6 6 6 7 7 7 7 7 5 4 3 2 3 3 3
26 23 18 15 13 12 11 10 10 10 9 9 10 11 11 11 11 11 11 11 11 11 10 10 10 10 10 9 7 6 5 5 6 4 4 7 5 5 3 3 5 2 1
25 22 19 16 14 11 10 10 10 9 9 9 10 10 10 11 11 11 12 13 13 13 13 14 14 14 12 11 11 8 6 4 4 3 5 6 6 5 3 2 3 4 3
24 22 19 16 13 12 11 10 9 9 8 9 10 9 10 10 11 11 13 13 13 13 12 12 12 12 11 11 11 10 8 4 3 2 4 6 5 3 3 6 6 9 9
24 21 18 15 13 11 10 9 8 8 9 9 9 8 9 10 10 12 12 11 11 11 12 12 12 12 11 10 9 9 8 6 3 3 2 3 6 6 6 10 11 9 9
22 20 17 14 12 11 10 8 8 8 8 8 8 9 9 10 10 12 11 11 10 11 11 11 11 10 10 9 9 8 7 6 4 2 2 0 0 6 9 9 12 16 12
22 19 16 13 12 10 7 6 6 7 7 7 9 10 10 11 11 11 12 12 12 13 13 14 14 12 11 11 11 10 8 4 3 3 1 0 2 4 7 10 7 6 10
20 19 17 13 10 7 7 7 7 7 8 8 10 10 11 12 12 12 12 13 14 14 14 15 15 15 13 12 13 11 9 5 5 5 5 4 3 5 6 6 8 6 9
20 18 15 12 9 9 8 8 8 9 9 10 11 11 12 13 12 13 13 14 14 13 15 17 18 17 16 16 16 14 9 7 7 7 5 4 3 6 7 4 8 11 14
19 16 14 12 12 11 11 11 11 12 11 11 12 10 10 10 10 12 12 12 13 13 13 15 19 20 20 18 18 17 14 10 9 9 10 6 6 7 7 8 9 11 13
18 13 13 13 13 13 12 13 13 12 12 10 8 8 8 7 7 8 10 10 10 11 10 13 15 17 19 18 18 18 15 13 13 12 12 13 11 10 10 9 11 13 14
17 14 13 13 14 14 14 14 11 11 10 8 6 6 4 4 4 8 7 8 8 8 9 10 11 12 16 17 16 16 15 13 13 14 14 13 14 13 13 14 14 14 15
15 15 14 15 14 13 12 12 10 10 8 6 5 4 2 3 4 4 4 4 4 5 6 8 9 13 16 18 16 14 13 13 13 12 13 14 15 16 18 19 19 19 18
18 14 15 18 16 13 11 10 7 6 4 3 2 2 3 3 3 1 2 3 3 5 7 10 13 16 19 20 19 18 16 13 11 12 13 15 16 17 17 18 18 17 19
21 20 18 19 16 13 12 10 8 7 5 2 1 2 3 4 5 5 6 7 8 9 12 14 18 20 22 26 27 26 22 19 16 16 17 17 18 19 21 22 21 21 19
25 24 22 20 17 15 12 11 9 9 6 3 2 2 5 7 8 8 8 8 11 13 15 19 23 27 30 33 34 29 25 22 21 20 19 21 20 21 23 23 24 24 22
29 25 23 19 16 11 8 7 7 9 6 4 5 8 9 11 11 10 11 11 13 16 19 26 33 33 35 34 30 28 26 25 24 23 23 23 24 26 27 24 25 26 27
31 29 25 21 15 12 10 7 8 9 9 10 12 12 12 11 11 11 11 14 17 21 28 34 36 38 32 28 28 27 26 26 26 25 24 24 23 22 24 24 27 28 27
35 33 27 23 15 7 8 8 12 13 12 11 14 13 13 13 11 13 17 20 22 28 32 33 33 30 30 31 32 31 30 30 29 28 27 25 23 22 23 23 26 27 29
34 35 26 17 6 11 16 10 12 11 9 7 8 9 11 11 13 16 18 23 29 30 32 34 32 31 33 36 34 31 29 27 24 19 17 19 23 25 24 22 22 24 25
25 25 15 5 12 6 8 8 7 5 2 1 5 8 12 14 17 22 25 29 32 34 34 32 33 34 35 31 31 32 30 10 16 22 17 19 24 24 23 24 25 24 25
10 5 7 5 10 7 6 5 1 9 9 11 14 16 18 22 26 24 30 32 31 29 30 30 31 29 26 25 26 29 17 28 8 21 24 18 26 28 29 32 34 34 31
15 13 9 9 6 4 4 5 4 7 11 17 19 21 21 20 18 20 22 23 27 28 24 22 24 24 24 23 22 21 16 10 29 24 30 28 22 35 33 32 32 31 30
15 12 9 8 7 5 5 6 8 11 14 15 17 18 18 18 21 21 24 33 26 23 25 25 24 23 22 22 22 16 15 21 22 26 18 35 37 34 32 30 26 24 21
11 9 6 4 1 2 5 9 12 13 14 15 15 13 16 20 26 35 30 21 25 28 28 23 20 19 19 19 18 21 27 26 27 25 31 26 29 31 28 29 21 14 11
10 5 3 1 3 7 10 10 11 11 11 9 12 18 25 27 29 26 25 26 26 27 24 21 19 18 18 20 22 21 18 20 23 25 27 29 26 27 22 24 12 10 9

GFSSE_850_spd_024.txt.gz
Wind_Speed
24 23 21 19 16 15 13 13 12 12 12 12 12 11 11 10 9 9 9 9 10 11 10 9 9 8 7 6 6 6 5 7 7 7 7 7 5 4 5 5 5 3 5
26 23 21 19 17 15 13 12 11 12 12 11 12 12 12 11 12 12 13 14 14 14 14 14 13 12 11 9 9 8 7 6 6 6 6 6 5 4 5 5 5 5 4
24 22 20 18 16 15 13 11 10 11 11 11 11 12 12 13 14 15 15 15 15 14 13 13 13 12 11 11 11 9 8 6 4 5 4 4 5 4 5 3 5 7 8
24 22 19 17 15 13 11 10 11 11 11 10 11 11 12 13 14 15 14 14 13 13 13 13 12 11 11 10 10 9 8 6 5 4 4 3 4 3 4 6 8 9 11
24 21 19 16 14 11 11 11 11 10 10 10 10 11 12 13 13 14 13 12 11 11 11 11 11 11 11 11 10 10 9 8 5 3 3 2 2 1 4 8 10 9 8
23 21 18 15 12 12 11 11 10 10 10 10 11 12 12 12 13 13 12 11 11 12 12 12 12 11 11 11 12 13 11 10 8 5 2 2 4 5 7 7 10 9 12
22 19 17 14 12 11 11 10 10 10 11 12 12 12 12 12 12 14 15 15 15 15 16 17 17 15 14 15 14 13 11 11 10 7 4 2 4 6 9 7 8 8 6
20 19 16 14 12 10 10 10 10 11 13 13 13 13 13 13 14 15 15 15 15 16 18 18 19 18 18 17 18 16 13 11 10 10 8 6 5 4 6 6 6 6 8
18 17 16 14 12 10 9 10 11 12 14 14 13 14 13 13 14 14 15 14 14 14 16 17 19 18 18 19 18 17 16 13 11 10 10 9 9 9 9 8 8 9 10
19 16 14 12 11 11 12 12 13 14 15 15 12 12 11 12 12 11 13 12 12 12 12 12 14 15 16 16 17 17 17 15 14 14 11 10 11 13 12 12 12 11 11
19 16 13 13 13 13 14 14 14 15 14 12 10 10 9 9 9 8 9 9 10 8 7 8 9 10 13 15 15 15 16 16 15 15 14 14 11 11 13 14 15 16 16
19 16 15 14 14 14 14 15 14 14 12 10 8 7 6 5 6 6 5 5 5 5 5 5 7 11 15 17 17 16 17 18 16 15 12 12 13 13 13 15 16 17 18
16 16 15 15 15 14 13 13 13 12 9 8 7 5 4 4 4 3 2 2 2 4 5 7 10 14 16 18 19 18 18 17 16 14 14 15 13 13 13 14 16 17 17
18 15 15 15 13 13 12 10 10 9 5 4 3 2 1 1 0 1 2 4 6 6 7 10 12 15 21 25 28 27 24 20 17 16 17 16 17 18 17 17 18 19 20
19 17 15 14 13 11 10 9 8 6 3 1 1 0 2 2 4 4 4 6 8 7 8 10 14 21 27 30 29 30 26 21 19 18 18 18 20 20 21 22 23 22 22
18 17 16 14 13 11 8 9 8 6 6 6 5 4 4 4 5 6 7 8 8 10 13 16 21 27 31 32 29 26 23 21 20 19 20 21 23 24 25 26 26 26 27
19 19 18 15 13 13 10 10 7 11 13 10 10 8 7 7 8 8 8 8 12 16 18 22 27 29 31 31 28 27 25 23 23 23 22 21 21 22 24 26 26 30 30
24 23 21 20 14 12 9 5 9 16 13 12 12 9 9 11 10 10 11 13 15 21 25 28 32 33 33 34 32 29 30 30 28 26 24 22 21 20 21 24 26 27 28
27 26 26 22 18 11 4 16 13 14 13 13 11 11 11 10 10 13 15 22 26 25 27 30 32 35 36 34 32 30 27 24 24 23 19 17 16 16 17 19 21 24 26
25 27 27 23 18 14 12 9 11 10 5 4 5 10 9 13 14 17 23 22 22 25 27 31 34 35 34 33 30 27 26 23 20 15 19 22 23 23 21 21 22 25 27
17 21 20 18 11 7 6 3 7 4 5 12 8 8 14 14 17 20 22 21 26 28 29 33 36 32 28 28 30 30 27 11 18 24 16 19 28 28 29 31 32 32 31
15 11 6 6 11 4 3 4 3 7 7 9 12 14 16 18 22 23 22 25 28 32 34 29 26 27 25 24 24 26 10 22 11 11 26 23 27 31 29 33 35 35 35
20 17 16 14 8 4 3 5 6 9 9 12 14 17 19 21 21 19 23 29 31 26 24 26 26 23 23 22 21 18 10 8 26 21 27 27 24 33 34 32 31 28 27
19 17 15 13 9 5 2 4 7 10 13 16 18 18 17 16 20 24 26 24 23 24 25 24 23 22 20 19 17 12 15 19 21 23 16 25 26 28 33 32 30 24 19
16 14 11 7 5 4 5 8 11 14 15 15 14 13 15 20 22 23 22 23 23 23 24 22 20 18 17 18 19 22 23 21 18 16 27 27 32 29 31 28 26 21 13
13 11 9 6 3 4 7 9 10 10 9 8 11 14 18 20 21 24 24 27 26 25 23 21 21 19 18 18 19 19 19 20 23 22 24 24 23 24 21 17 20 16 13

GFSSE_850_spd_027.txt.gz
Wind_Speed
25 24 22 20 18 16 15 15 15 14 13 13 12 11 10 9 9 8 8 9 9 9 9 8 7 7 7 7 6 5 6 7 7 6 6 5 4 5 7 7 5 6 7
25 25 22 20 19 17 15 15 14 13 13 13 12 12 11 11 12 12 12 13 14 13 12 11 11 10 9 9 8 7 7 6 5 6 5 5 4 4 5 6 5 7 7
24 24 22 20 18 17 16 15 14 14 13 14 13 13 13 14 15 14 14 13 13 13 12 11 11 11 11 11 11 11 9 7 6 5 5 4 2 1 3 4 6 5 6
25 24 22 19 17 16 15 14 13 13 13 13 13 14 14 15 15 14 12 12 12 11 10 9 10 10 11 12 12 11 11 9 7 6 4 3 2 1 4 4 6 9 8
25 24 21 18 17 15 14 14 12 13 13 13 14 14 15 15 14 13 11 11 11 11 12 12 12 13 13 14 14 13 13 12 9 7 4 3 2 3 6 7 8 9 7
24 22 20 18 16 14 13 12 12 13 13 14 14 14 15 15 13 12 11 13 13 14 15 15 16 15 16 16 16 15 14 13 13 10 7 6 6 7 7 5 6 8 6
23 22 19 16 14 13 12 12 12 13 14 15 14 15 15 15 15 14 15 16 17 17 18 18 18 18 18 18 19 17 14 13 12 11 9 8 9 9 8 7 5 5 5
22 21 18 16 14 12 11 12 13 14 15 15 16 16 15 16 15 15 14 15 16 18 17 17 17 17 17 18 18 18 17 15 13 11 10 10 10 10 10 9 9 9 9
20 19 18 16 14 13 12 12 13 15 15 16 16 16 15 15 14 14 13 13 13 13 12 12 13 14 15 16 18 19 19 18 16 14 11 10 11 11 11 10 10 10 11
19 18 16 15 14 13 13 13 14 15 16 14 15 14 13 12 12 11 11 11 10 9 8 8 11 13 14 14 14 15 16 17 17 17 16 12 10 10 10 10 11 11 11
18 17 15 13 14 14 14 15 15 15 14 12 12 11 10 9 8 8 8 7 6 5 5 7 9 10 13 15 17 19 19 18 16 16 16 16 15 12 11 11 11 12 12
20 17 15 14 14 13 14 14 15 14 13 10 9 8 7 6 5 4 5 4 3 4 4 6 9 12 14 18 21 23 25 24 22 18 14 15 17 18 15 14 13 13 12
19 17 15 14 14 13 13 13 14 13 10 7 6 5 4 4 3 2 1 1 1 2 4 6 8 10 15 20 25 28 30 28 24 21 17 16 17 18 20 20 19 18 17
18 16 15 15 14 13 13 11 10 8 6 4 3 2 3 3 3 3 3 2 4 5 6 8 9 13 18 23 27 30 32 26 24 22 20 19 19 20 21 23 23 23 24
17 16 16 14 14 12 10 8 6 5 4 5 5 4 3 4 3 3 4 6 7 7 9 12 15 20 24 26 28 29 28 28 27 25 23 21 21 22 22 23 25 26 27
17 17 15 15 13 11 9 7 7 6 10 10 8 7 5 5 5 6 7 7 8 11 13 17 20 24 27 28 29 29 28 28 27 26 25 24 24 23 23 24 25 27 29
16 16 16 16 13 11 8 3 3 11 16 15 13 11 8 7 8 7 7 8 11 12 17 21 22 24 26 30 30 30 30 29 28 26 25 24 25 25 26 26 26 27 27
18 18 19 16 13 10 9 6 14 20 18 12 14 11 9 7 7 7 9 11 16 20 22 21 25 28 31 33 31 28 27 26 25 24 22 21 20 21 23 24 25 27 27
16 18 19 19 18 12 8 14 26 16 11 9 8 5 5 8 8 13 15 16 19 20 20 23 27 31 30 29 27 24 21 22 23 22 20 19 19 20 22 25 26 28 30
16 19 21 22 19 5 13 17 6 8 6 3 3 12 10 9 13 13 15 16 16 20 24 28 29 26 26 27 26 21 22 19 16 14 19 24 22 21 25 27 28 31 32
13 13 16 17 17 11 5 5 4 7 2 7 4 6 6 10 11 13 12 15 20 25 27 26 26 27 25 25 20 18 16 10 10 19 16 18 21 27 27 29 27 31 32
8 9 12 9 7 7 6 6 4 5 4 4 6 7 9 10 11 13 16 21 24 21 22 24 24 26 25 24 21 15 10 13 10 12 16 23 23 24 23 28 30 32 32
16 15 13 12 11 9 7 7 8 4 5 7 9 11 11 12 15 19 23 24 20 21 24 26 26 23 22 19 19 10 9 8 21 13 20 17 20 24 24 25 24 23 23
21 20 18 15 13 11 10 7 5 7 9 11 12 11 11 14 18 18 20 21 21 22 26 26 27 23 20 14 13 9 12 15 17 19 14 19 18 25 24 24 24 22 21
19 17 15 13 13 9 6 6 8 10 11 10 9 9 13 17 18 18 20 22 23 23 23 23 24 24 17 14 10 11 12 13 14 17 26 22 22 19 19 19 18 20 21
18 17 15 12 10 8 7 8 9 9 8 8 10 12 14 16 18 20 20 22 23 23 24 24 28 17 15 13 11 11 13 15 17 17 21 22 25 25 23 20 18 18 17

GFSSE_850_spd_030.txt.gz
Wind_Speed
22 25 24 23 21 19 16 15 14 13 12 11 10 9 8 8 8 8 8 7 7 7 7 7 8 8 8 8 8 8 8 7 7 7 6 5 4 5 6 7 7 5 6
24 26 23 22 20 17 15 14 13 13 11 11 10 9 9 10 11 11 11 11 11 10 10 9 9 9 9 10 10 9 9 9 8 8 8 11 8 4 6 6 5 6 6
25 23 22 20 18 16 15 14 13 12 11 11 11 11 12 13 13 13 12 11 11 10 10 10 9 10 11 11 12 12 11 10 8 8 9 6 6 4 5 6 7 8 8
26 24 21 20 18 16 14 13 12 12 11 11 12 13 14 14 13 12 11 10 9 9 9 10 11 12 12 11 11 11 12 12 10 9 8 6 6 7 8 7 9 9 7
22 22 21 20 18 16 15 14 13 12 12 13 13 14 14 13 12 11 10 10 11 12 13 13 13 14 15 15 14 14 14 13 15 13 8 8 8 9 9 9 8 9 4
21 21 21 19 17 16 16 14 13 13 13 14 14 14 14 13 12 11 12 12 13 14 15 15 16 16 17 19 19 17 15 14 16 11 9 10 9 11 11 10 9 10 8
21 19 21 18 16 15 15 14 13 13 13 13 14 14 13 13 13 13 14 14 15 16 15 15 17 18 19 20 21 20 20 18 14 11 9 9 10 10 11 11 11 11 11
21 20 20 17 14 14 13 13 13 13 13 13 14 14 14 13 13 13 13 14 14 15 15 14 14 15 16 17 18 19 20 18 15 14 11 9 10 10 9 9 9 10 10
19 19 18 17 16 13 12 12 13 13 13 13 13 14 13 12 11 11 11 11 10 11 10 10 11 11 12 14 16 18 20 19 15 13 11 9 12 11 10 8 7 8 10
20 18 16 15 14 12 13 13 14 14 13 13 13 12 11 10 9 9 8 7 6 6 6 6 7 9 11 13 15 18 20 20 15 13 12 14 14 11 11 10 10 9 11
19 18 17 14 13 13 12 14 14 14 13 12 11 10 8 5 5 4 5 5 3 1 3 4 6 8 9 13 15 20 18 16 15 13 12 17 17 16 14 12 12 12 10
20 18 13 12 13 14 12 14 13 13 9 8 7 8 4 5 4 4 4 3 1 1 3 6 7 8 10 11 14 18 16 22 15 14 14 18 17 17 19 18 16 16 15
16 14 13 14 15 14 11 10 9 7 7 6 6 5 5 4 4 3 3 2 2 3 2 6 8 11 17 19 21 22 21 18 15 16 16 21 19 18 19 21 22 20 19
15 13 15 14 14 14 11 10 10 7 6 4 5 5 5 3 6 6 3 4 3 4 7 8 9 15 19 22 23 23 22 19 17 17 16 25 23 21 21 21 23 24 24
14 13 14 14 14 13 13 12 11 8 4 6 6 5 5 6 8 8 8 6 5 7 8 9 11 15 18 17 19 23 21 19 19 17 16 24 25 24 23 23 23 24 26
13 13 15 15 15 14 12 10 7 4 7 11 12 7 7 11 10 9 7 7 7 8 11 11 17 18 15 17 19 20 21 19 17 19 17 16 23 22 23 24 24 24 24
13 14 16 16 14 13 11 8 4 7 14 16 12 12 13 12 9 7 7 7 10 12 14 17 17 13 17 19 21 20 21 20 18 16 15 12 13 18 21 21 23 24 25
14 15 19 17 14 13 13 6 9 14 17 15 9 11 9 7 7 9 11 11 12 14 14 12 13 17 20 20 20 22 21 19 18 15 12 13 12 12 15 22 24 25 27
15 16 19 20 20 15 11 3 15 20 19 6 3 3 4 7 11 9 11 11 12 11 12 17 18 18 20 20 21 21 19 19 18 16 12 11 12 15 16 17 24 24 28
16 16 18 20 21 19 16 13 12 9 4 5 7 5 9 9 8 10 11 13 14 11 14 23 23 17 18 19 21 21 19 20 17 14 12 13 14 15 16 19 20 20 26
16 17 17 15 18 14 11 6 7 5 8 6 6 6 8 9 9 9 8 12 17 19 23 21 17 17 19 18 21 22 22 18 12 14 16 16 16 19 18 20 20 22 22
15 16 15 14 12 7 10 10 9 9 8 8 7 8 9 8 8 10 14 15 19 11 11 16 16 17 16 18 19 22 20 19 20 12 20 18 21 19 21 21 23 23 22
16 16 15 13 14 15 13 12 11 9 6 6 8 8 10 11 11 13 15 13 12 15 14 13 15 15 19 18 15 16 19 18 21 22 19 19 21 24 23 23 23 22 21
18 17 16 16 16 14 13 8 7 6 5 6 6 7 6 10 13 12 16 20 22 18 15 15 15 17 18 18 16 15 16 17 21 25 20 21 23 24 26 24 23 23 22
21 20 17 16 13 14 12 9 6 5 5 4 3 4 6 8 13 15 18 22 22 16 16 14 14 20 18 17 16 16 16 16 17 20 25 26 25 24 22 23 25 23 23
15 16 19 17 15 14 12 9 6 5 2 1 3 6 9 12 14 15 16 20 19 18 16 15 18 20 17 16 14 13 15 17 19 19 21 23 26 26 23 24 24 23 25

GFSSE_850_spd_033.txt.gz
Wind_Speed
24 26 24 23 21 19 18 16 14 12 11 9 8 7 6 6 6 7 8 9 9 9 10 9 10 11 10 11 11 10 10 10 10 9 9 8 8 7 7 6 8 6 6
27 28 26 24 21 19 17 15 13 12 10 9 7 7 7 7 9 10 10 10 9 8 9 9 10 10 10 11 11 12 12 11 12 13 8 7 12 8 8 6 5 8 6
26 27 26 23 21 18 16 14 12 11 10 8 7 8 9 10 11 10 9 9 8 9 9 9 11 11 11 11 12 12 13 13 14 16 14 9 12 9 10 9 10 10 9
26 27 26 22 21 18 15 14 12 11 10 9 8 10 10 11 11 10 8 8 9 9 10 12 14 14 14 14 14 14 15 16 15 15 7 8 13 10 12 12 11 10 7
25 24 24 22 20 17 15 13 12 11 10 10 10 11 11 11 10 9 10 10 11 12 13 14 16 18 19 18 18 18 16 19 16 12 8 7 10 10 12 12 12 12 10
25 26 23 21 18 17 14 13 12 11 11 11 11 11 11 11 10 11 11 12 13 13 15 16 18 19 19 20 20 21 18 16 15 10 9 9 9 11 11 11 11 11 11
24 23 26 20 18 17 15 14 14 13 12 12 12 11 11 11 12 12 12 13 14 14 14 15 16 16 18 20 21 22 21 19 15 12 10 8 12 10 10 10 10 9 9
22 21 25 20 17 16 15 15 14 13 12 12 12 11 12 12 11 11 11 12 13 12 12 11 13 13 14 16 17 20 20 18 14 12 10 10 14 12 10 9 9 10 10
27 22 23 20 17 16 15 14 13 13 12 13 12 12 11 10 9 8 8 8 8 8 8 7 8 9 10 12 15 20 19 20 16 12 10 8 17 14 13 12 10 10 11
21 22 20 18 15 15 15 14 13 13 13 13 12 11 9 7 6 6 4 4 3 3 4 3 5 7 10 15 16 19 16 17 16 12 12 14 19 15 14 14 13 12 12
18 17 18 15 12 11 11 13 13 13 12 12 11 10 10 4 5 3 2 1 3 4 5 5 8 9 12 15 20 20 17 16 15 15 15 16 22 19 17 15 16 16 15
19 18 15 14 13 13 11 14 11 12 9 8 6 5 4 3 5 2 3 4 5 6 8 9 10 12 11 11 13 15 14 18 15 15 19 22 24 21 19 20 19 17 18
17 16 14 15 14 13 12 12 10 10 7 5 5 6 6 1 3 5 5 6 6 8 5 7 9 8 13 14 14 15 17 17 15 15 20 25 26 22 20 21 22 21 20
16 15 14 13 15 12 12 11 11 9 7 5 3 1 3 3 3 3 3 4 5 6 7 7 8 11 12 14 15 17 18 18 18 18 17 24 26 25 22 21 21 22 22
14 14 14 14 14 15 14 12 10 7 5 2 0 3 3 5 7 4 6 4 5 6 7 8 9 11 14 15 18 19 20 21 20 17 16 24 24 25 23 21 21 20 21
16 16 16 15 15 14 13 13 10 6 4 0 7 10 10 11 13 6 6 4 5 8 9 13 17 17 15 17 19 21 21 21 20 20 17 17 21 22 23 22 21 21 21
15 16 17 17 16 15 14 14 12 6 4 9 13 11 12 11 11 10 9 12 15 14 12 10 12 13 16 18 20 20 21 21 18 18 18 13 15 20 19 22 25 24 24
16 17 17 16 17 19 15 15 6 5 13 13 15 9 9 11 11 12 14 14 12 11 13 11 12 14 16 20 22 21 22 21 19 19 18 14 14 13 16 19 24 27 27
16 17 17 18 21 17 15 17 14 21 17 15 7 5 4 6 8 10 11 10 9 7 9 10 13 16 19 22 21 21 23 20 20 20 17 15 14 15 17 19 23 24 22
16 16 17 18 19 17 15 17 17 19 14 9 7 5 5 8 9 4 4 8 9 8 9 12 17 17 18 21 22 22 21 21 22 18 14 14 14 15 17 18 20 20 22
18 17 18 20 17 14 14 10 13 9 11 8 5 7 5 6 5 4 3 6 9 10 11 13 15 18 18 19 22 24 22 22 19 17 19 14 17 18 20 20 21 22 22
18 19 20 17 15 11 7 8 8 9 7 4 6 6 6 5 4 4 8 6 9 10 13 15 16 17 18 18 22 22 25 24 17 12 16 20 19 19 20 23 24 22 23
18 19 20 15 11 11 12 12 11 10 7 6 5 3 5 6 4 7 8 9 10 13 15 16 16 16 20 19 18 20 24 22 24 22 23 22 23 24 24 23 25 24 22
19 17 15 14 15 15 14 11 10 7 6 7 6 7 5 7 6 6 9 11 13 14 15 16 16 17 19 23 21 19 19 22 24 29 22 21 21 24 25 25 23 23 24
18 17 16 17 17 16 13 11 9 7 5 3 3 5 5 7 8 10 12 13 15 17 18 19 19 19 20 22 22 20 20 19 20 22 26 25 24 23 23 24 24 25 25
17 18 17 18 16 14 11 10 9 9 6 4 5 6 7 9 11 12 14 16 18 20 20 19 19 20 21 23 20 18 16 18 19 21 23 23 26 29 27 26 27 26 27

GFSSE_850_spd_036.txt.gz
Wind_Speed
22 26 24 23 22 21 19 17 15 13 12 10 9 8 9 10 11 12 13 14 15 14 14 14 15 14 15 15 15 15 15 15 13 11 9 10 10 8 9 8 8 8 7
29 29 25 24 23 21 18 16 14 12 11 9 9 9 10 11 12 13 13 13 13 13 14 14 14 14 15 15 16 16 16 18 13 10 11 14 14 12 10 9 8 8 7
30 30 27 25 23 20 18 15 13 12 10 10 10 10 11 12 12 12 12 11 12 13 16 16 17 17 18 19 18 19 18 17 15 9 10 14 14 14 11 11 11 11 10
30 30 27 25 22 20 17 15 13 11 10 10 10 11 12 12 12 11 10 11 14 17 19 20 21 22 22 22 20 20 20 17 17 15 13 18 18 13 14 13 12 11 10
27 29 27 23 21 19 15 13 13 11 10 11 11 12 11 11 10 11 12 15 17 19 20 21 22 23 23 24 23 18 18 18 19 11 8 9 10 12 12 12 12 11 10
25 28 26 22 20 17 14 12 13 11 11 12 12 11 11 11 12 13 14 16 18 18 19 20 20 21 21 22 22 20 15 21 17 12 9 12 13 12 11 11 11 10 11
26 26 25 20 17 17 15 12 12 12 12 12 12 11 11 13 13 14 15 15 16 16 16 17 17 17 18 20 22 22 16 17 16 16 10 11 19 15 14 12 11 10 9
24 27 26 23 18 17 15 13 11 12 12 12 12 12 13 13 13 13 14 14 14 13 14 13 13 14 15 16 21 20 19 16 16 16 9 11 20 18 16 14 12 13 11
26 26 23 22 20 18 15 13 12 12 12 13 13 13 13 12 11 10 10 10 9 9 9 9 10 11 13 16 17 18 15 18 14 17 17 17 18 22 18 15 14 13 13
30 20 22 21 20 19 17 14 13 12 13 13 14 14 12 11 7 5 6 6 7 7 6 7 9 10 14 16 18 17 13 18 13 14 18 20 22 24 22 18 16 15 14
27 25 20 17 17 17 15 14 13 13 14 14 15 16 13 11 7 7 5 4 5 6 7 9 10 10 9 13 15 16 15 19 12 12 18 20 22 25 25 20 16 16 16
32 21 17 16 13 14 16 16 14 15 13 12 13 11 8 5 2 6 7 6 6 8 8 12 13 9 9 12 14 21 20 20 11 10 18 21 23 25 25 23 21 18 17
25 25 21 19 16 12 16 15 18 15 12 6 11 8 7 2 2 2 8 7 8 9 7 9 10 13 12 14 15 18 20 21 20 15 18 20 23 26 25 25 21 20 20
23 21 20 19 21 18 18 15 13 17 17 11 9 8 4 2 5 6 3 3 4 2 6 5 7 11 13 15 17 18 18 19 19 22 17 19 23 24 25 25 22 20 19
19 16 16 25 20 19 17 18 18 12 10 9 7 7 12 10 10 8 7 4 7 7 6 10 11 15 12 11 13 17 21 20 20 16 20 18 22 22 21 25 23 21 21
19 17 18 22 24 22 23 20 17 14 13 10 6 6 8 11 6 5 6 6 7 8 11 14 15 12 15 18 20 22 20 22 19 16 19 19 19 18 18 18 22 24 24
19 18 20 20 23 22 24 23 20 12 8 5 4 3 9 13 14 11 7 10 12 17 15 15 16 16 20 21 22 19 18 20 18 16 21 15 18 16 16 19 18 24 26
24 23 24 24 23 23 24 20 16 8 6 5 9 9 7 8 7 7 7 10 13 13 13 15 15 17 17 19 19 18 21 25 17 20 19 15 15 16 18 18 20 22 24
20 21 20 22 24 20 17 18 18 19 10 16 19 14 5 5 5 6 9 11 8 4 9 13 15 20 24 24 22 18 22 21 18 20 18 13 17 14 12 18 20 21 18
19 23 21 24 22 19 15 18 14 12 19 14 11 5 6 4 5 4 7 9 9 6 11 16 20 21 21 18 20 20 20 19 15 18 15 13 14 12 13 18 19 18 17
24 23 20 25 20 19 16 17 15 13 11 7 6 5 3 4 3 6 4 6 10 6 9 12 17 17 17 16 22 27 21 16 16 14 10 12 12 16 16 15 20 24 26
21 20 19 21 16 17 9 9 8 8 7 5 5 5 8 5 3 3 9 8 9 14 14 12 16 19 20 15 22 22 22 26 17 18 21 22 17 21 22 20 24 22 23
20 22 21 20 15 14 13 11 12 9 11 13 10 6 8 5 5 8 9 12 13 12 12 16 18 18 17 21 16 21 25 19 28 23 20 21 22 21 19 20 21 20 22
23 22 22 21 14 17 18 15 14 14 9 8 4 8 10 9 9 8 8 12 15 17 18 16 16 20 26 21 21 18 19 22 23 26 20 20 21 20 21 21 22 21 25
23 23 20 15 18 20 18 13 13 10 11 16 15 12 5 7 10 8 9 11 13 15 16 20 22 22 21 19 22 24 29 27 22 20 23 21 25 23 22 23 24 25 24
16 18 20 19 20 18 20 15 16 15 10 8 6 5 3 7 8 11 13 15 18 20 22 20 20 23 25 28 28 25 23 20 20 19 22 23 24 26 26 29 28 27 27

GFSSE_850_spd_039.txt.gz
Wind_Speed
27 25 25 25 25 22 21 20 18 16 15 14 13 13 14 16 18 19 18 18 18 18 17 18 18 19 19 20 20 19 18 18 17 17 17 18 16 13 11 11 10 10 10
34 29 28 27 26 23 20 19 17 16 15 14 13 15 16 17 18 18 18 18 18 18 19 20 21 21 21 22 22 20 18 15 13 14 18 20 19 16 13 12 10 9 10
35 34 31 29 26 25 21 18 16 16 15 14 14 16 17 17 18 17 17 19 20 21 24 24 26 26 24 25 24 20 15 13 14 14 13 19 19 15 13 13 13 13 13
37 36 33 30 26 24 21 18 16 16 14 16 16 16 17 17 16 17 18 21 22 24 25 26 28 28 26 23 23 22 23 20 14 14 16 19 17 13 14 14 14 13 13
36 35 33 29 27 23 21 18 17 16 15 17 17 16 15 16 17 19 20 22 23 24 24 25 25 26 26 22 18 19 27 21 16 13 13 15 18 17 14 13 13 12 11
38 35 31 27 24 22 20 18 17 15 17 17 17 16 16 17 19 20 21 21 21 22 22 21 22 22 23 23 21 15 18 23 12 14 13 12 22 20 17 14 13 12 11
37 36 30 27 24 22 19 17 17 17 17 17 15 16 17 19 20 19 19 18 19 19 18 18 18 18 19 22 21 18 14 20 18 12 12 16 19 22 19 16 14 12 12
29 31 28 25 20 14 17 17 17 17 17 16 16 16 18 19 19 19 17 17 15 15 15 15 14 15 16 17 17 16 19 20 16 18 17 19 20 20 21 16 13 13 13
38 28 26 29 18 18 18 17 17 17 17 17 17 17 17 17 17 15 14 13 11 11 11 11 11 11 13 14 15 16 16 12 13 17 15 18 20 21 22 19 14 12 12
23 17 26 22 19 20 18 15 17 17 18 19 19 18 17 15 13 11 9 8 8 8 8 8 8 7 9 11 14 16 18 10 8 12 13 16 19 21 21 20 16 12 12
28 30 24 17 17 17 19 18 18 19 20 20 19 16 13 13 12 10 6 5 6 7 9 10 7 6 8 14 17 19 18 17 10 11 15 17 19 19 23 21 19 15 12
28 23 22 17 17 18 18 18 19 20 21 20 17 14 9 8 5 5 6 6 9 9 7 9 4 6 11 15 18 19 19 20 21 16 19 15 16 21 22 22 20 18 14
26 26 21 19 16 17 20 22 22 22 21 16 14 15 8 5 3 3 6 7 7 7 6 2 2 7 10 10 11 13 14 16 21 17 16 17 19 19 22 18 19 17 15
32 26 26 19 18 20 21 22 21 18 18 13 11 10 10 9 9 7 8 7 6 7 5 6 7 8 11 13 9 13 16 20 19 17 15 16 17 20 18 17 17 17 17
32 32 28 24 21 19 23 21 18 18 14 12 13 15 13 12 12 11 7 6 8 9 9 7 10 13 14 14 17 18 20 18 18 17 14 17 20 20 15 14 17 19 19
33 30 27 26 21 23 18 22 24 22 15 13 15 13 12 11 10 9 10 13 12 11 8 12 13 14 13 16 20 20 14 15 18 20 14 17 18 19 16 15 18 17 15
23 23 30 26 28 23 25 23 19 14 17 15 8 5 8 12 13 12 10 9 10 10 13 13 14 15 17 20 18 12 11 17 20 14 11 13 16 14 14 15 16 16 18
18 22 28 32 28 25 25 24 20 20 16 11 6 3 7 12 12 9 9 8 7 11 13 16 16 16 19 18 20 17 18 19 19 13 13 10 17 11 10 10 12 15 17
16 23 28 33 28 25 23 22 22 21 14 9 10 6 7 11 9 7 5 6 7 12 13 14 16 20 22 23 24 24 23 18 14 15 14 8 2 1 7 8 13 17 19
22 22 28 28 23 20 20 25 25 19 12 10 10 7 8 8 6 5 6 6 9 10 11 13 18 22 24 26 25 23 24 21 6 12 8 8 7 9 10 14 18 20 22
25 28 28 27 25 27 26 29 23 15 13 11 8 10 9 7 6 6 8 8 8 7 11 14 17 20 24 24 26 28 31 11 22 9 12 15 17 17 19 20 20 20 18
32 36 30 28 23 26 22 19 16 15 12 10 11 11 9 7 8 8 9 11 13 14 16 18 18 20 20 21 23 28 17 27 8 19 18 22 20 16 16 15 16 16 17
36 35 29 22 19 22 20 14 15 12 14 15 12 9 10 10 8 7 10 13 14 15 17 18 18 18 18 21 25 21 15 8 30 21 24 17 22 23 22 19 17 13 15
32 28 22 18 19 16 21 22 17 16 16 11 6 10 11 9 6 8 10 12 13 14 16 16 15 19 22 24 23 21 21 24 28 29 11 21 18 21 22 23 24 24 27
24 25 21 19 14 23 21 23 17 13 13 14 16 14 10 6 3 2 6 10 12 15 17 20 22 23 18 19 23 23 26 27 26 27 31 24 26 25 24 22 25 29 34
24 24 21 20 20 23 24 23 16 18 23 19 21 17 11 8 10 10 12 14 16 19 21 25 23 21 22 23 24 28 28 27 26 23 30 29 26 28 26 25 24 29 22